SIA241 WSSS-YSSY

Flight info

Callsign SIA241
Flight time 7h 10m
Altitude 39000
Route IDBUD1A IDBUD T24 SURGA M635 ATMAP A576 CIN/N0483F410 A576 APOMA Y52 VELGI Y105 TARAL Y59 RIVET
Aircraft A359/H-SDE2E3GHIJ3J4J5LM1ORWXY/LB1D1

Departure

Time 2026-04-24 22:12
Airport Singapore Changi Airport (WSSS)

Arrival

Time 2026-04-25 05:23
Airport Sydney Kingsford Smith International Airport (YSSY)
Time Latitude Longitude Altitude Speed Heading
2026-04-24 22:00 1.35859 103.99174 31 ft 0 kts 293°
2026-04-24 22:01 1.35852 103.99190 30 ft 3 kts 300°
2026-04-24 22:01 1.35838 103.99209 30 ft 3 kts 315°
2026-04-24 22:02 1.35820 103.99223 29 ft 3 kts 335°
2026-04-24 22:02 1.35799 103.99229 31 ft 3 kts
2026-04-24 22:02 1.35785 103.99227 28 ft 0 kts 22°
2026-04-24 22:05 1.35818 103.99240 30 ft 12 kts 22°
2026-04-24 22:05 1.35918 103.99285 31 ft 14 kts 38°
2026-04-24 22:05 1.35921 103.99327 31 ft 8 kts 115°
2026-04-24 22:06 1.35880 103.99411 31 ft 17 kts 111°
2026-04-24 22:06 1.35826 103.99510 31 ft 15 kts 148°
2026-04-24 22:06 1.35730 103.99500 32 ft 14 kts 204°
2026-04-24 22:06 1.35614 103.99450 32 ft 21 kts 203°
2026-04-24 22:07 1.35478 103.99393 32 ft 22 kts 202°
2026-04-24 22:07 1.35326 103.99330 32 ft 27 kts 202°
2026-04-24 22:07 1.35135 103.99251 32 ft 31 kts 202°
2026-04-24 22:07 1.34936 103.99167 32 ft 31 kts 203°
2026-04-24 22:08 1.34735 103.99082 32 ft 31 kts 203°
2026-04-24 22:08 1.34534 103.98997 33 ft 31 kts 202°
2026-04-24 22:08 1.34336 103.98917 33 ft 30 kts 202°
2026-04-24 22:08 1.34140 103.98834 32 ft 31 kts 203°
2026-04-24 22:09 1.33940 103.98750 32 ft 31 kts 203°
2026-04-24 22:09 1.33737 103.98665 30 ft 32 kts 202°
2026-04-24 22:09 1.33532 103.98579 32 ft 32 kts 203°
2026-04-24 22:09 1.33328 103.98492 32 ft 32 kts 203°
2026-04-24 22:10 1.33154 103.98420 32 ft 20 kts 202°
2026-04-24 22:10 1.33028 103.98368 32 ft 16 kts 202°
2026-04-24 22:10 1.32966 103.98373 33 ft 8 kts 139°
2026-04-24 22:10 1.32937 103.98415 33 ft 8 kts 117°
2026-04-24 22:11 1.32930 103.98507 35 ft 18 kts 63°
2026-04-24 22:11 1.33023 103.98560 35 ft 11 kts 23°
2026-04-24 22:11 1.33036 103.98566 34 ft 0 kts 22°
2026-04-24 22:11 1.33251 103.98657 34 ft 68 kts 23°
2026-04-24 22:12 1.33881 103.98923 34 ft 126 kts 22°
2026-04-24 22:12 1.34851 103.99330 103 ft 168 kts 22°
2026-04-24 22:12 1.35906 103.99785 734 ft 167 kts 24°
2026-04-24 22:12 1.37005 104.00235 1293 ft 175 kts 23°
2026-04-24 22:13 1.38164 104.00694 1632 ft 184 kts 23°
2026-04-24 22:13 1.39383 104.01194 1907 ft 195 kts 24°
2026-04-24 22:13 1.40663 104.01740 2175 ft 206 kts 24°
2026-04-24 22:13 1.42003 104.02330 2488 ft 214 kts 25°
2026-04-24 22:14 1.43409 104.02958 2759 ft 230 kts 25°
2026-04-24 22:14 1.44922 104.03627 3037 ft 245 kts 24°
2026-04-24 22:14 1.46509 104.04367 3347 ft 256 kts 30°
2026-04-24 22:14 1.47730 104.05616 3822 ft 259 kts 63°
2026-04-24 22:15 1.48076 104.07383 4351 ft 262 kts 92°
2026-04-24 22:15 1.47632 104.09158 4862 ft 266 kts 113°
2026-04-24 22:15 1.46808 104.10837 5336 ft 271 kts 117°
2026-04-24 22:15 1.45943 104.12525 5860 ft 273 kts 115°
2026-04-24 22:16 1.45126 104.14247 6401 ft 275 kts 114°
2026-04-24 22:16 1.44320 104.15986 6910 ft 276 kts 114°
2026-04-24 22:16 1.43509 104.17734 7423 ft 278 kts 114°
2026-04-24 22:16 1.42706 104.19478 7933 ft 280 kts 114°
2026-04-24 22:17 1.41887 104.21254 8449 ft 282 kts 114°
2026-04-24 22:17 1.41061 104.23039 8875 ft 283 kts 114°
2026-04-24 22:17 1.40230 104.24835 9035 ft 284 kts 114°
2026-04-24 22:17 1.39400 104.26629 9230 ft 286 kts 114°
2026-04-24 22:18 1.38564 104.28438 9740 ft 288 kts 114°
2026-04-24 22:18 1.37723 104.30259 10206 ft 290 kts 114°
2026-04-24 22:18 1.36860 104.32126 10430 ft 302 kts 114°
2026-04-24 22:18 1.35960 104.34074 10641 ft 314 kts 114°
2026-04-24 22:19 1.35038 104.36062 10831 ft 325 kts 114°
2026-04-24 22:19 1.34054 104.38178 11037 ft 336 kts 115°
2026-04-24 22:19 1.32726 104.40101 11179 ft 349 kts 135°
2026-04-24 22:19 1.30637 104.41400 11338 ft 362 kts 159°
2026-04-24 22:20 1.28165 104.42041 11517 ft 372 kts 167°
2026-04-24 22:20 1.25607 104.42580 11751 ft 378 kts 166°
2026-04-24 22:20 1.23029 104.43161 12076 ft 381 kts 165°
2026-04-24 22:20 1.20445 104.43779 12431 ft 383 kts 165°
2026-04-24 22:21 1.17853 104.44422 12756 ft 385 kts 164°
2026-04-24 22:21 1.16123 104.44858 12986 ft 386 kts 164°
2026-04-24 22:21 1.13513 104.45521 13322 ft 388 kts 164°
2026-04-24 22:21 1.10889 104.46194 13656 ft 390 kts 164°
2026-04-24 22:22 1.07389 104.47145 14030 ft 393 kts 163°
2026-04-24 22:22 1.05608 104.47643 14227 ft 394 kts 163°
2026-04-24 22:22 1.02963 104.48385 14528 ft 396 kts 162°
2026-04-24 22:22 1.00304 104.49128 14825 ft 398 kts 162°
2026-04-24 22:23 0.96767 104.50113 15219 ft 400 kts 162°
2026-04-24 22:23 0.94080 104.50861 15523 ft 402 kts 162°
2026-04-24 22:23 0.92293 104.51358 15721 ft 403 kts 162°
2026-04-24 22:24 0.86310 104.53021 16378 ft 407 kts 162°
2026-04-24 22:24 0.83576 104.53781 16681 ft 408 kts 162°
2026-04-24 22:24 0.80834 104.54543 16963 ft 410 kts 162°
2026-04-24 22:24 0.78075 104.55310 17239 ft 412 kts 162°
2026-04-24 22:25 0.75305 104.56079 17528 ft 414 kts 162°
2026-04-24 22:25 0.72523 104.56852 17803 ft 416 kts 162°
2026-04-24 22:25 0.69724 104.57631 18095 ft 418 kts 162°
2026-04-24 22:25 0.66915 104.58411 18330 ft 420 kts 162°
2026-04-24 22:26 0.64103 104.59205 18573 ft 421 kts 162°
2026-04-24 22:26 0.61290 104.60044 18813 ft 422 kts 161°
2026-04-24 22:26 0.58466 104.60894 19049 ft 424 kts 161°
2026-04-24 22:26 0.55635 104.61742 19294 ft 425 kts 161°
2026-04-24 22:27 0.52834 104.62581 19521 ft 427 kts 161°
2026-04-24 22:27 0.50055 104.63626 19749 ft 426 kts 152°
2026-04-24 22:27 0.47557 104.65189 19972 ft 425 kts 139°
2026-04-24 22:27 0.45477 104.67281 20184 ft 424 kts 127°
2026-04-24 22:28 0.43852 104.69740 20420 ft 424 kts 119°
2026-04-24 22:28 0.42379 104.72295 20649 ft 425 kts 118°
2026-04-24 22:28 0.40913 104.74865 20846 ft 427 kts 118°
2026-04-24 22:28 0.39433 104.77449 21079 ft 428 kts 119°
2026-04-24 22:29 0.36453 104.82627 21505 ft 431 kts 119°
2026-04-24 22:29 0.34950 104.85231 21682 ft 433 kts 119°
2026-04-24 22:29 0.33446 104.87833 21924 ft 434 kts 119°
2026-04-24 22:30 0.31934 104.90451 22124 ft 435 kts 119°
2026-04-24 22:30 0.30417 104.93076 22343 ft 437 kts 119°
2026-04-24 22:30 0.28896 104.95707 22535 ft 438 kts 119°
2026-04-24 22:30 0.27372 104.98344 22741 ft 439 kts 119°
2026-04-24 22:31 0.25838 105.00996 22942 ft 441 kts 119°
2026-04-24 22:31 0.24302 105.03656 23136 ft 442 kts 119°
2026-04-24 22:31 0.22783 105.06291 23327 ft 443 kts 119°
2026-04-24 22:31 0.21239 105.08961 23505 ft 445 kts 119°
2026-04-24 22:32 0.19683 105.11648 23658 ft 446 kts 119°
2026-04-24 22:32 0.18128 105.14334 23820 ft 447 kts 119°
2026-04-24 22:32 0.16571 105.17021 23980 ft 448 kts 119°
2026-04-24 22:32 0.15008 105.19722 24134 ft 449 kts 119°
2026-04-24 22:33 0.13443 105.22428 24298 ft 450 kts 119°
2026-04-24 22:33 0.11873 105.25144 24452 ft 451 kts 119°
2026-04-24 22:33 0.10303 105.27858 24611 ft 452 kts 119°
2026-04-24 22:33 0.08726 105.30583 24753 ft 453 kts 119°
2026-04-24 22:34 0.07147 105.33313 24909 ft 454 kts 119°
2026-04-24 22:34 0.05565 105.36051 25051 ft 455 kts 120°
2026-04-24 22:34 0.03979 105.38795 25205 ft 457 kts 120°
2026-04-24 22:34 0.02389 105.41542 25358 ft 458 kts 119°
2026-04-24 22:35 0.00794 105.44300 25503 ft 459 kts 119°
2026-04-24 22:35 -0.00802 105.47062 25662 ft 460 kts 120°
2026-04-24 22:35 -0.02402 105.49828 25815 ft 460 kts 120°
2026-04-24 22:35 -0.04005 105.52599 25961 ft 461 kts 120°
2026-04-24 22:36 -0.05613 105.55381 26106 ft 463 kts 120°
2026-04-24 22:36 -0.07229 105.58173 26268 ft 463 kts 120°
2026-04-24 22:36 -0.08844 105.60965 26413 ft 465 kts 120°
2026-04-24 22:36 -0.10464 105.63762 26578 ft 466 kts 120°
2026-04-24 22:37 -0.12063 105.66529 26731 ft 466 kts 120°
2026-04-24 22:37 -0.13698 105.69359 26897 ft 467 kts 120°
2026-04-24 22:37 -0.15311 105.72153 27024 ft 469 kts 120°
2026-04-24 22:37 -0.16946 105.74983 27185 ft 470 kts 120°
2026-04-24 22:38 -0.18581 105.77810 27334 ft 471 kts 120°
2026-04-24 22:38 -0.20227 105.80652 27480 ft 472 kts 120°
2026-04-24 22:38 -0.21871 105.83494 27630 ft 473 kts 120°
2026-04-24 22:38 -0.23518 105.86343 27773 ft 474 kts 120°
2026-04-24 22:39 -0.25171 105.89198 27942 ft 475 kts 120°
2026-04-24 22:39 -0.26825 105.92059 28091 ft 476 kts 120°
2026-04-24 22:39 -0.28485 105.94930 28236 ft 477 kts 120°
2026-04-24 22:39 -0.30148 105.97806 28387 ft 478 kts 120°
2026-04-24 22:40 -0.31815 106.00688 28538 ft 480 kts 120°
2026-04-24 22:40 -0.33489 106.03584 28680 ft 481 kts 120°
2026-04-24 22:40 -0.36272 106.08397 28914 ft 483 kts 120°
2026-04-24 22:41 -0.37953 106.11306 29033 ft 484 kts 120°
2026-04-24 22:41 -0.39641 106.14223 29162 ft 485 kts 120°
2026-04-24 22:41 -0.41332 106.17146 29294 ft 486 kts 120°
2026-04-24 22:41 -0.43025 106.20076 29442 ft 487 kts 120°
2026-04-24 22:42 -0.44723 106.23012 29559 ft 488 kts 120°
2026-04-24 22:42 -0.46425 106.25956 29723 ft 489 kts 120°
2026-04-24 22:42 -0.48129 106.28906 29844 ft 490 kts 120°
2026-04-24 22:42 -0.49836 106.31860 29956 ft 491 kts 120°
2026-04-24 22:43 -0.51547 106.34816 30088 ft 493 kts 120°
2026-04-24 22:43 -0.53262 106.37783 30173 ft 494 kts 120°
2026-04-24 22:43 -0.54986 106.40765 30280 ft 495 kts 120°
2026-04-24 22:43 -0.56683 106.43701 30439 ft 495 kts 120°
2026-04-24 22:44 -0.60163 106.49710 30632 ft 498 kts 120°
2026-04-24 22:44 -0.62091 106.52538 30761 ft 498 kts 128°
2026-04-24 22:44 -0.64295 106.55211 30892 ft 499 kts 130°
2026-04-24 22:45 -0.66563 106.57840 31052 ft 499 kts 131°
2026-04-24 22:45 -0.68860 106.60443 31181 ft 500 kts 131°
2026-04-24 22:45 -0.73502 106.65647 31349 ft 502 kts 131°
2026-04-24 22:46 -0.75831 106.68255 31487 ft 503 kts 131°
2026-04-24 22:46 -0.78157 106.70865 31638 ft 503 kts 131°
2026-04-24 22:46 -0.80479 106.73477 31784 ft 503 kts 131°
2026-04-24 22:46 -0.82799 106.76088 31957 ft 502 kts 131°
2026-04-24 22:47 -0.85112 106.78694 32129 ft 501 kts 131°
2026-04-24 22:47 -0.87420 106.81299 32295 ft 501 kts 131°
2026-04-24 22:47 -0.89728 106.83904 32470 ft 500 kts 131°
2026-04-24 22:47 -0.92039 106.86507 32635 ft 500 kts 131°
2026-04-24 22:48 -0.94343 106.89103 32808 ft 499 kts 131°
2026-04-24 22:48 -0.96648 106.91703 32984 ft 499 kts 131°
2026-04-24 22:48 -0.98921 106.94267 33166 ft 498 kts 131°
2026-04-24 22:48 -1.01219 106.96858 33356 ft 497 kts 130°
2026-04-24 22:49 -1.03517 106.99450 33539 ft 497 kts 130°
2026-04-24 22:49 -1.05809 107.02034 33757 ft 496 kts 130°
2026-04-24 22:49 -1.08104 107.04622 33930 ft 495 kts 130°
2026-04-24 22:49 -1.10385 107.07195 34056 ft 496 kts 130°
2026-04-24 22:50 -1.12676 107.09778 34191 ft 497 kts 130°
2026-04-24 22:50 -1.14966 107.12360 34372 ft 496 kts 131°
2026-04-24 22:50 -1.17255 107.14941 34562 ft 495 kts 130°
2026-04-24 22:50 -1.19539 107.17517 34749 ft 495 kts 130°
2026-04-24 22:51 -1.21819 107.20088 34938 ft 494 kts 131°
2026-04-24 22:51 -1.24103 107.22663 35131 ft 494 kts 130°
2026-04-24 22:51 -1.26350 107.25197 35324 ft 493 kts 131°
2026-04-24 22:51 -1.28624 107.27761 35501 ft 493 kts 130°
2026-04-24 22:52 -1.30896 107.30325 35716 ft 492 kts 130°
2026-04-24 22:52 -1.33166 107.32886 35903 ft 492 kts 131°
2026-04-24 22:52 -1.35435 107.35444 36097 ft 491 kts 130°
2026-04-24 22:52 -1.37699 107.38001 36274 ft 491 kts 130°
2026-04-24 22:53 -1.39944 107.40573 36483 ft 491 kts 130°
2026-04-24 22:53 -1.42181 107.43170 36555 ft 493 kts 130°
2026-04-24 22:53 -1.44412 107.45769 36749 ft 493 kts 130°
2026-04-24 22:53 -1.46643 107.48369 36931 ft 492 kts 130°
2026-04-24 22:54 -1.48873 107.50963 37140 ft 491 kts 130°
2026-04-24 22:54 -1.51108 107.53560 37303 ft 491 kts 130°
2026-04-24 22:54 -1.53334 107.56143 37532 ft 490 kts 130°
2026-04-24 22:54 -1.55559 107.58722 37719 ft 490 kts 130°
2026-04-24 22:55 -1.57757 107.61268 37850 ft 490 kts 130°
2026-04-24 22:55 -1.59980 107.63845 38018 ft 490 kts 130°
2026-04-24 22:55 -1.62206 107.66425 38199 ft 489 kts 130°
2026-04-24 22:55 -1.64428 107.68999 38344 ft 490 kts 130°
2026-04-24 22:56 -1.66652 107.71577 38511 ft 489 kts 130°
2026-04-24 22:56 -1.68874 107.74152 38669 ft 488 kts 130°
2026-04-24 22:56 -1.71090 107.76718 38798 ft 488 kts 130°
2026-04-24 22:56 -1.73308 107.79289 38865 ft 488 kts 130°
2026-04-24 22:57 -1.77744 107.84429 38867 ft 488 kts 130°
2026-04-24 22:57 -1.82181 107.89573 38869 ft 488 kts 130°
2026-04-24 22:58 -1.86621 107.94727 38869 ft 488 kts 130°
2026-04-24 22:58 -1.91032 107.99844 38868 ft 488 kts 130°
2026-04-24 22:59 -1.95462 108.04976 38866 ft 487 kts 130°
2026-04-24 23:00 -2.02101 108.12673 38868 ft 487 kts 130°
2026-04-24 23:00 -2.06527 108.17810 38875 ft 488 kts 130°
2026-04-24 23:01 -2.10957 108.22945 38902 ft 487 kts 130°
2026-04-24 23:01 -2.15389 108.28077 38867 ft 487 kts 130°
2026-04-24 23:02 -2.19811 108.33203 38870 ft 487 kts 129°
2026-04-24 23:02 -2.24212 108.38306 38872 ft 488 kts 130°
2026-04-24 23:03 -2.28644 108.43444 38872 ft 488 kts 130°
2026-04-24 23:03 -2.33068 108.48573 38866 ft 486 kts 130°
2026-04-24 23:04 -2.37485 108.53695 38870 ft 485 kts 130°
2026-04-24 23:04 -2.41891 108.58805 38872 ft 485 kts 130°
2026-04-24 23:05 -2.46303 108.63922 38872 ft 485 kts 130°
2026-04-24 23:05 -2.50715 108.69041 38874 ft 487 kts 129°
2026-04-24 23:06 -2.55141 108.74155 38872 ft 486 kts 129°
2026-04-24 23:06 -2.59570 108.79270 38872 ft 486 kts 129°
2026-04-24 23:07 -2.63995 108.84384 38875 ft 486 kts 129°
2026-04-24 23:07 -2.68425 108.89507 38878 ft 486 kts 130°
2026-04-24 23:08 -2.72827 108.94597 38878 ft 487 kts 130°
2026-04-24 23:08 -2.77260 108.99721 38878 ft 487 kts 130°
2026-04-24 23:09 -2.81688 109.04846 38877 ft 486 kts 129°
2026-04-24 23:09 -2.86112 109.09959 38877 ft 486 kts 130°
2026-04-24 23:10 -2.90534 109.15080 38880 ft 487 kts 129°
2026-04-24 23:10 -2.94960 109.20225 38882 ft 488 kts 129°
2026-04-24 23:11 -2.99391 109.25372 38880 ft 488 kts 130°
2026-04-24 23:11 -3.03823 109.30521 38882 ft 488 kts 129°
2026-04-24 23:12 -3.08246 109.35662 38879 ft 487 kts 129°
2026-04-24 23:12 -3.12673 109.40808 38881 ft 487 kts 129°
2026-04-24 23:13 -3.17101 109.45953 38883 ft 488 kts 130°
2026-04-24 23:13 -3.21507 109.51079 38884 ft 489 kts 129°
2026-04-24 23:14 -3.25950 109.56247 38884 ft 490 kts 129°
2026-04-24 23:14 -3.30397 109.61412 38884 ft 489 kts 130°
2026-04-24 23:15 -3.34842 109.66582 38884 ft 490 kts 129°
2026-04-24 23:15 -3.39285 109.71755 38884 ft 490 kts 130°
2026-04-24 23:16 -3.43727 109.76924 38881 ft 490 kts 129°
2026-04-24 23:16 -3.48173 109.82098 38882 ft 489 kts 130°
2026-04-24 23:17 -3.52601 109.87251 38883 ft 487 kts 130°
2026-04-24 23:17 -3.57025 109.92401 38884 ft 488 kts 130°
2026-04-24 23:18 -3.61469 109.97567 38884 ft 492 kts 130°
2026-04-24 23:18 -3.65955 110.02791 38883 ft 496 kts 130°
2026-04-24 23:19 -3.70451 110.08030 38881 ft 496 kts 130°
2026-04-24 23:19 -3.74917 110.13229 38880 ft 496 kts 129°
2026-04-24 23:20 -3.79407 110.18459 38880 ft 494 kts 129°
2026-04-24 23:20 -3.83882 110.23676 38880 ft 493 kts 129°
2026-04-24 23:21 -3.88351 110.28884 38884 ft 493 kts 130°
2026-04-24 23:21 -3.92820 110.34093 38883 ft 493 kts 129°
2026-04-24 23:22 -3.97301 110.39322 38882 ft 497 kts 129°
2026-04-24 23:22 -4.01611 110.44784 38875 ft 501 kts 126°
2026-04-24 23:23 -4.05805 110.50347 38887 ft 499 kts 126°
2026-04-24 23:23 -4.09996 110.55854 38882 ft 496 kts 126°
2026-04-24 23:24 -4.14215 110.61338 38884 ft 496 kts 126°
2026-04-24 23:24 -4.18442 110.66812 38881 ft 497 kts 126°
2026-04-24 23:25 -4.22676 110.72293 38881 ft 497 kts 126°
2026-04-24 23:25 -4.26900 110.77768 38885 ft 496 kts 126°
2026-04-24 23:26 -4.31120 110.83242 38891 ft 496 kts 126°
2026-04-24 23:26 -4.34625 110.87787 38878 ft 495 kts 126°
2026-04-24 23:27 -4.38839 110.93252 38882 ft 495 kts 126°
2026-04-24 23:27 -4.43049 110.98714 38883 ft 495 kts 126°
2026-04-24 23:28 -4.47258 111.04176 38884 ft 495 kts 126°
2026-04-24 23:28 -4.51469 111.09641 38885 ft 495 kts 126°
2026-04-24 23:29 -4.55679 111.15106 38885 ft 495 kts 126°
2026-04-24 23:29 -4.59876 111.20556 38890 ft 492 kts 126°
2026-04-24 23:30 -4.64059 111.25986 38890 ft 492 kts 126°
2026-04-24 23:30 -4.68257 111.31394 38892 ft 491 kts 126°
2026-04-24 23:31 -4.72452 111.36799 38889 ft 491 kts 126°
2026-04-24 23:31 -4.76614 111.42169 38891 ft 491 kts 126°
2026-04-24 23:32 -4.80809 111.47584 38889 ft 491 kts 126°
2026-04-24 23:32 -4.84995 111.52992 38891 ft 491 kts 126°
2026-04-24 23:33 -4.89181 111.58399 38891 ft 491 kts 126°
2026-04-24 23:33 -4.93367 111.63806 38889 ft 491 kts 126°
2026-04-24 23:34 -4.97558 111.69222 38895 ft 491 kts 126°
2026-04-24 23:34 -5.01743 111.74630 38894 ft 490 kts 126°
2026-04-24 23:35 -5.05920 111.80026 38895 ft 490 kts 126°
2026-04-24 23:35 -5.10103 111.85435 38889 ft 490 kts 126°
2026-04-24 23:36 -5.14287 111.90848 38894 ft 490 kts 126°
2026-04-24 23:36 -5.18464 111.96254 38890 ft 490 kts 126°
2026-04-24 23:37 -5.22613 112.01627 38893 ft 490 kts 126°
2026-04-24 23:37 -5.28888 112.09749 38896 ft 490 kts 126°
2026-04-24 23:38 -5.33069 112.15157 38897 ft 490 kts 126°
2026-04-24 23:38 -5.37245 112.20566 38899 ft 490 kts 126°
2026-04-24 23:39 -5.41425 112.25976 38897 ft 490 kts 126°
2026-04-24 23:39 -5.45599 112.31390 38897 ft 490 kts 126°
2026-04-24 23:40 -5.49773 112.36806 38892 ft 490 kts 126°
2026-04-24 23:40 -5.53949 112.42218 38893 ft 490 kts 126°
2026-04-24 23:41 -5.58106 112.47599 38899 ft 490 kts 126°
2026-04-24 23:41 -5.62281 112.53011 38893 ft 490 kts 126°
2026-04-24 23:42 -5.66445 112.58418 38902 ft 489 kts 126°
2026-04-24 23:42 -5.70611 112.63834 38905 ft 489 kts 126°
2026-04-24 23:43 -5.74774 112.69242 38900 ft 489 kts 126°
2026-04-24 23:43 -5.78936 112.74646 38901 ft 489 kts 126°
2026-04-24 23:44 -5.83087 112.80025 38903 ft 489 kts 126°
2026-04-24 23:44 -5.87246 112.85423 38906 ft 488 kts 126°
2026-04-24 23:45 -5.91396 112.90825 38905 ft 487 kts 126°
2026-04-24 23:45 -5.95539 112.96218 38908 ft 488 kts 126°
2026-04-24 23:46 -5.99692 113.01619 38910 ft 489 kts 126°
2026-04-24 23:46 -6.03850 113.07027 38908 ft 489 kts 126°
2026-04-24 23:47 -6.08010 113.12439 38905 ft 489 kts 126°
2026-04-24 23:47 -6.12169 113.17848 38905 ft 488 kts 126°
2026-04-24 23:48 -6.16318 113.23248 38910 ft 488 kts 126°
2026-04-24 23:48 -6.20440 113.28621 38911 ft 489 kts 126°
2026-04-24 23:49 -6.24752 113.33905 38913 ft 490 kts 134°
2026-04-24 23:49 -6.30028 113.38250 38909 ft 492 kts 142°
2026-04-24 23:50 -6.35576 113.42283 38909 ft 493 kts 143°
2026-04-24 23:50 -6.41173 113.46271 38913 ft 492 kts 143°
2026-04-24 23:51 -6.46749 113.50274 38915 ft 492 kts 143°
2026-04-24 23:51 -6.52316 113.54285 38916 ft 492 kts 143°
2026-04-24 23:52 -6.57877 113.58307 38918 ft 492 kts 142°
2026-04-24 23:52 -6.63447 113.62334 38916 ft 492 kts 142°
2026-04-24 23:53 -6.69004 113.66351 38918 ft 492 kts 142°
2026-04-24 23:53 -6.74567 113.70373 38921 ft 492 kts 142°
2026-04-24 23:54 -6.80093 113.74370 38919 ft 492 kts 143°
2026-04-24 23:54 -6.85658 113.78394 38918 ft 493 kts 142°
2026-04-24 23:55 -6.91231 113.82428 38918 ft 493 kts 142°
2026-04-24 23:55 -6.96803 113.86462 38917 ft 493 kts 142°
2026-04-24 23:56 -7.02380 113.90505 38923 ft 494 kts 142°
2026-04-24 23:56 -7.07954 113.94544 38923 ft 494 kts 142°
2026-04-24 23:57 -7.13540 113.98593 38919 ft 494 kts 142°
2026-04-24 23:57 -7.19087 114.02618 38919 ft 494 kts 143°
2026-04-24 23:58 -7.24666 114.06666 38922 ft 494 kts 142°
2026-04-24 23:58 -7.30249 114.10718 38921 ft 495 kts 143°
2026-04-24 23:59 -7.35840 114.14779 38922 ft 495 kts 142°
2026-04-24 23:59 -7.41433 114.18841 38922 ft 495 kts 142°
2026-04-25 00:00 -7.47022 114.22902 38924 ft 495 kts 142°
2026-04-25 00:00 -7.52616 114.26968 38928 ft 495 kts 142°
2026-04-25 00:01 -7.58201 114.31030 38925 ft 495 kts 142°
2026-04-25 00:01 -7.63759 114.35073 38933 ft 495 kts 143°
2026-04-25 00:02 -7.69347 114.39138 38933 ft 496 kts 143°
2026-04-25 00:02 -7.74941 114.43209 38938 ft 495 kts 143°
2026-04-25 00:03 -7.80528 114.47276 38939 ft 495 kts 143°
2026-04-25 00:03 -7.86110 114.51341 38933 ft 495 kts 143°
2026-04-25 00:04 -7.91697 114.55412 38937 ft 495 kts 143°
2026-04-25 00:04 -7.97281 114.59481 38938 ft 495 kts 143°
2026-04-25 00:05 -8.02854 114.63543 38946 ft 494 kts 143°
2026-04-25 00:05 -8.08423 114.67605 38942 ft 494 kts 143°
2026-04-25 00:06 -8.13990 114.71668 38944 ft 494 kts 143°
2026-04-25 00:06 -8.19526 114.75710 38944 ft 494 kts 143°
2026-04-25 00:07 -8.25099 114.79778 38950 ft 494 kts 143°
2026-04-25 00:07 -8.30668 114.83839 38948 ft 493 kts 143°
2026-04-25 00:08 -8.36225 114.87901 38952 ft 493 kts 143°
2026-04-25 00:08 -8.41784 114.91967 38955 ft 493 kts 143°
2026-04-25 00:09 -8.47347 114.96032 38955 ft 493 kts 143°
2026-04-25 00:09 -8.52896 115.00092 38946 ft 493 kts 143°
2026-04-25 00:10 -8.58453 115.04156 38942 ft 493 kts 143°
2026-04-25 00:10 -8.63971 115.08197 38941 ft 493 kts 143°
2026-04-25 00:11 -8.68626 115.11600 38939 ft 493 kts 143°
2026-04-25 00:11 -8.75023 115.16412 38938 ft 492 kts 138°
2026-04-25 00:12 -8.80126 115.21037 38937 ft 492 kts 136°
2026-04-25 00:12 -8.85146 115.25749 38939 ft 492 kts 136°
2026-04-25 00:13 -8.89305 115.29677 38937 ft 492 kts 136°
2026-04-25 00:13 -8.95168 115.35195 38942 ft 493 kts 136°
2026-04-25 00:14 -8.99354 115.39129 38942 ft 494 kts 136°
2026-04-25 00:14 -9.04395 115.43866 38943 ft 494 kts 136°
2026-04-25 00:15 -9.09431 115.48604 38947 ft 494 kts 136°
2026-04-25 00:15 -9.14436 115.53315 38947 ft 494 kts 136°
2026-04-25 00:16 -9.19471 115.58052 38950 ft 495 kts 136°
2026-04-25 00:16 -9.24514 115.62798 38948 ft 494 kts 136°
2026-04-25 00:17 -9.29546 115.67538 38952 ft 494 kts 135°
2026-04-25 00:17 -9.34581 115.72282 38952 ft 494 kts 136°
2026-04-25 00:18 -9.39612 115.77026 38949 ft 494 kts 136°
2026-04-25 00:18 -9.44636 115.81767 38951 ft 494 kts 136°
2026-04-25 00:19 -9.49666 115.86508 38953 ft 494 kts 136°
2026-04-25 00:19 -9.54692 115.91249 38952 ft 494 kts 136°
2026-04-25 00:20 -9.59713 115.95995 38954 ft 493 kts 136°
2026-04-25 00:20 -9.64727 116.00726 38954 ft 492 kts 136°
2026-04-25 00:21 -9.69738 116.05463 38956 ft 492 kts 136°
2026-04-25 00:21 -9.74715 116.10171 38954 ft 492 kts 136°
2026-04-25 00:22 -9.79720 116.14906 38957 ft 492 kts 136°
2026-04-25 00:22 -9.84721 116.19641 38957 ft 492 kts 136°
2026-04-25 00:23 -9.89729 116.24384 38957 ft 492 kts 136°
2026-04-25 00:23 -9.94732 116.29122 38961 ft 492 kts 136°
2026-04-25 00:24 -9.99742 116.33868 38960 ft 493 kts 136°
2026-04-25 00:24 -10.04756 116.38622 38961 ft 494 kts 136°
2026-04-25 00:25 -10.09773 116.43380 38962 ft 494 kts 136°
2026-04-25 00:25 -10.14790 116.48142 38964 ft 493 kts 136°
2026-04-25 00:26 -10.19809 116.52905 38963 ft 495 kts 136°
2026-04-25 00:26 -10.24837 116.57681 38963 ft 495 kts 136°
2026-04-25 00:27 -10.29863 116.62456 38963 ft 495 kts 136°
2026-04-25 00:27 -10.34896 116.67239 38962 ft 495 kts 136°
2026-04-25 00:28 -10.39918 116.72016 38966 ft 495 kts 136°
2026-04-25 00:28 -10.44961 116.76814 38965 ft 496 kts 136°
2026-04-25 00:29 -10.50022 116.81632 38970 ft 501 kts 136°
2026-04-25 00:29 -10.55100 116.86471 38968 ft 500 kts 136°
2026-04-25 00:30 -10.60182 116.91311 38970 ft 502 kts 136°
2026-04-25 00:30 -10.65274 116.96162 38971 ft 502 kts 136°
2026-04-25 00:31 -10.70386 117.01039 38971 ft 504 kts 136°
2026-04-25 00:31 -10.75506 117.05926 38971 ft 505 kts 136°
2026-04-25 00:32 -10.80590 117.10781 38972 ft 503 kts 136°
2026-04-25 00:32 -10.85686 117.15647 38972 ft 502 kts 136°
2026-04-25 00:33 -10.90766 117.20501 38969 ft 500 kts 136°
2026-04-25 00:33 -10.95847 117.25357 38973 ft 502 kts 136°
2026-04-25 00:34 -11.00938 117.30228 38973 ft 503 kts 136°
2026-04-25 00:34 -11.06018 117.35090 38971 ft 499 kts 136°
2026-04-25 00:35 -11.11081 117.39938 38974 ft 500 kts 136°
2026-04-25 00:35 -11.16149 117.44791 38974 ft 501 kts 136°
2026-04-25 00:36 -11.21202 117.49636 38975 ft 501 kts 136°
2026-04-25 00:36 -11.26277 117.54501 38974 ft 502 kts 136°
2026-04-25 00:37 -11.31367 117.59385 38975 ft 502 kts 136°
2026-04-25 00:37 -11.36441 117.64255 38972 ft 500 kts 136°
2026-04-25 00:38 -11.41531 117.69143 38977 ft 506 kts 136°
2026-04-25 00:38 -11.46673 117.74085 38975 ft 508 kts 136°
2026-04-25 00:39 -11.51813 117.79025 38976 ft 509 kts 136°
2026-04-25 00:39 -11.56939 117.83957 38979 ft 510 kts 136°
2026-04-25 00:40 -11.62065 117.88892 38976 ft 505 kts 136°
2026-04-25 00:40 -11.67182 117.93819 38974 ft 507 kts 136°
2026-04-25 00:41 -11.72341 117.98789 38976 ft 510 kts 136°
2026-04-25 00:41 -11.77489 118.03752 38978 ft 507 kts 136°
2026-04-25 00:42 -11.82597 118.08678 38981 ft 503 kts 136°
2026-04-25 00:42 -11.87680 118.13582 38978 ft 503 kts 136°
2026-04-25 00:43 -11.92799 118.18524 38979 ft 507 kts 136°
2026-04-25 00:43 -11.97910 118.23464 38985 ft 509 kts 136°
2026-04-25 00:44 -12.03030 118.28416 38981 ft 506 kts 136°
2026-04-25 00:44 -12.08163 118.33376 38983 ft 511 kts 136°
2026-04-25 00:45 -12.13349 118.38391 38981 ft 512 kts 136°
2026-04-25 00:45 -12.18491 118.43370 38980 ft 508 kts 136°
2026-04-25 00:46 -12.23619 118.48341 38978 ft 506 kts 136°
2026-04-25 00:47 -12.31304 118.55793 38982 ft 511 kts 136°
2026-04-25 00:47 -12.36407 118.60747 38982 ft 507 kts 136°
2026-04-25 00:48 -12.41534 118.65720 39001 ft 507 kts 136°
2026-04-25 00:48 -12.46633 118.70670 38985 ft 504 kts 136°
2026-04-25 00:49 -12.51731 118.75627 38980 ft 509 kts 136°
2026-04-25 00:49 -12.56882 118.80641 38997 ft 509 kts 136°
2026-04-25 00:50 -12.61977 118.85596 38983 ft 508 kts 136°
2026-04-25 00:50 -12.67120 118.90594 39000 ft 512 kts 136°
2026-04-25 00:51 -12.72297 118.95638 39003 ft 514 kts 136°
2026-04-25 00:51 -12.77459 119.00675 39005 ft 510 kts 136°
2026-04-25 00:52 -12.82574 119.05667 38984 ft 507 kts 136°
2026-04-25 00:52 -12.87709 119.10679 39002 ft 511 kts 136°
2026-04-25 00:53 -12.92828 119.15672 38984 ft 505 kts 136°
2026-04-25 00:53 -12.97913 119.20637 38985 ft 505 kts 136°
2026-04-25 00:54 -13.03009 119.25620 38984 ft 506 kts 136°
2026-04-25 00:54 -13.08097 119.30601 39001 ft 510 kts 136°
2026-04-25 00:55 -13.13209 119.35604 39008 ft 507 kts 136°
2026-04-25 00:55 -13.18331 119.40617 39007 ft 510 kts 136°
2026-04-25 00:56 -13.23478 119.45659 39006 ft 512 kts 136°
2026-04-25 00:56 -13.28628 119.50711 39005 ft 510 kts 136°
2026-04-25 00:57 -13.33738 119.55722 38992 ft 508 kts 136°
2026-04-25 00:57 -13.38855 119.60748 39010 ft 509 kts 136°
2026-04-25 00:58 -13.43925 119.65731 39009 ft 505 kts 136°
2026-04-25 00:58 -13.48990 119.70709 39010 ft 504 kts 136°
2026-04-25 00:59 -13.54069 119.75704 39010 ft 508 kts 136°
2026-04-25 00:59 -13.59185 119.80737 38996 ft 508 kts 136°
2026-04-25 01:00 -13.64280 119.85752 39009 ft 509 kts 136°
2026-04-25 01:00 -13.69406 119.90807 39016 ft 511 kts 136°
2026-04-25 01:01 -13.73671 119.95012 39013 ft 509 kts 136°
2026-04-25 01:01 -13.78783 120.00054 39001 ft 507 kts 136°
2026-04-25 01:02 -13.83881 120.05086 39014 ft 509 kts 136°
2026-04-25 01:02 -13.88978 120.10122 39014 ft 507 kts 136°
2026-04-25 01:03 -13.94059 120.15143 38998 ft 505 kts 136°
2026-04-25 01:03 -13.99130 120.20158 39019 ft 508 kts 136°
2026-04-25 01:04 -14.04229 120.25206 39003 ft 508 kts 136°
2026-04-25 01:04 -14.09319 120.30250 39019 ft 508 kts 136°
2026-04-25 01:05 -14.14392 120.35281 39021 ft 510 kts 136°
2026-04-25 01:05 -14.19509 120.40355 39016 ft 509 kts 136°
2026-04-25 01:06 -14.24600 120.45407 39002 ft 507 kts 136°
2026-04-25 01:06 -14.29696 120.50463 39019 ft 508 kts 136°
2026-04-25 01:07 -14.34780 120.55512 39021 ft 506 kts 136°
2026-04-25 01:07 -14.39823 120.60526 39008 ft 507 kts 136°
2026-04-25 01:08 -14.44902 120.65580 39021 ft 508 kts 136°
2026-04-25 01:08 -14.49985 120.70635 39026 ft 507 kts 136°
2026-04-25 01:09 -14.55065 120.75699 39027 ft 507 kts 136°
2026-04-25 01:09 -14.60154 120.80774 39029 ft 508 kts 136°
2026-04-25 01:10 -14.65228 120.85837 39013 ft 507 kts 136°
2026-04-25 01:10 -14.70307 120.90908 39013 ft 507 kts 136°
2026-04-25 01:11 -14.75374 120.95971 39018 ft 507 kts 136°
2026-04-25 01:11 -14.80445 121.01042 39014 ft 507 kts 136°
2026-04-25 01:12 -14.85509 121.06106 39012 ft 507 kts 136°
2026-04-25 01:12 -14.90576 121.11177 39012 ft 507 kts 136°
2026-04-25 01:13 -14.95642 121.16251 39017 ft 507 kts 136°
2026-04-25 01:13 -15.00707 121.21328 39027 ft 507 kts 136°
2026-04-25 01:14 -15.05775 121.26413 39025 ft 508 kts 136°
2026-04-25 01:14 -15.10820 121.31473 39025 ft 508 kts 136°
2026-04-25 01:15 -15.15897 121.36577 39020 ft 508 kts 136°
2026-04-25 01:15 -15.20970 121.41683 39020 ft 508 kts 136°
2026-04-25 01:16 -15.26046 121.46791 39022 ft 508 kts 136°
2026-04-25 01:16 -15.31124 121.51896 39026 ft 509 kts 137°
2026-04-25 01:17 -15.36206 121.57012 39022 ft 509 kts 136°
2026-04-25 01:17 -15.41283 121.62136 39027 ft 509 kts 136°
2026-04-25 01:18 -15.46365 121.67258 39027 ft 509 kts 136°
2026-04-25 01:18 -15.51411 121.72346 39030 ft 509 kts 136°
2026-04-25 01:19 -15.56489 121.77477 39032 ft 509 kts 136°
2026-04-25 01:19 -15.61561 121.82611 39027 ft 510 kts 136°
2026-04-25 01:20 -15.66640 121.87756 39030 ft 510 kts 136°
2026-04-25 01:20 -15.71720 121.92897 39028 ft 510 kts 136°
2026-04-25 01:21 -15.76805 121.98048 39026 ft 510 kts 136°
2026-04-25 01:21 -15.81887 122.03200 39030 ft 510 kts 136°
2026-04-25 01:22 -15.86960 122.08348 39026 ft 509 kts 136°
2026-04-25 01:22 -15.92000 122.13469 39029 ft 510 kts 136°
2026-04-25 01:23 -15.97078 122.18625 39030 ft 511 kts 136°
2026-04-25 01:23 -16.02157 122.23791 39030 ft 510 kts 136°
2026-04-25 01:24 -16.07231 122.28956 39031 ft 510 kts 136°
2026-04-25 01:24 -16.12292 122.34112 39028 ft 509 kts 136°
2026-04-25 01:25 -16.17353 122.39270 39027 ft 510 kts 136°
2026-04-25 01:25 -16.22427 122.44447 39028 ft 511 kts 136°
2026-04-25 01:26 -16.27502 122.49633 39029 ft 511 kts 136°
2026-04-25 01:26 -16.32580 122.54818 39029 ft 510 kts 137°
2026-04-25 01:27 -16.37641 122.59994 39094 ft 510 kts 137°
2026-04-25 01:27 -16.40174 122.62586 39257 ft 510 kts 136°
2026-04-25 01:27 -16.42708 122.65175 39385 ft 511 kts 136°
2026-04-25 01:28 -16.47772 122.70363 39681 ft 510 kts 136°
2026-04-25 01:28 -16.50270 122.72922 39826 ft 510 kts 136°
2026-04-25 01:28 -16.52800 122.75514 39980 ft 510 kts 136°
2026-04-25 01:28 -16.55329 122.78109 40112 ft 510 kts 136°
2026-04-25 01:29 -16.57855 122.80700 40267 ft 509 kts 136°
2026-04-25 01:29 -16.60381 122.83293 40407 ft 509 kts 136°
2026-04-25 01:29 -16.62905 122.85881 40514 ft 509 kts 136°
2026-04-25 01:29 -16.65436 122.88480 40639 ft 509 kts 136°
2026-04-25 01:30 -16.67957 122.91070 40765 ft 509 kts 136°
2026-04-25 01:30 -16.70483 122.93667 40877 ft 509 kts 136°
2026-04-25 01:30 -16.73005 122.96260 41008 ft 509 kts 136°
2026-04-25 01:30 -16.75531 122.98859 41033 ft 510 kts 136°
2026-04-25 01:31 -16.80571 123.04048 41036 ft 509 kts 136°
2026-04-25 01:31 -16.85618 123.09250 41038 ft 509 kts 136°
2026-04-25 01:32 -16.90659 123.14444 41042 ft 509 kts 136°
2026-04-25 01:32 -16.95699 123.19644 41039 ft 509 kts 136°
2026-04-25 01:33 -17.00731 123.24840 41040 ft 509 kts 136°
2026-04-25 01:33 -17.05761 123.30036 41044 ft 509 kts 136°
2026-04-25 01:34 -17.10800 123.35248 41040 ft 510 kts 136°
2026-04-25 01:34 -17.15843 123.40467 41043 ft 510 kts 136°
2026-04-25 01:35 -17.20857 123.45661 41046 ft 510 kts 136°
2026-04-25 01:35 -17.25908 123.50897 41043 ft 510 kts 136°
2026-04-25 01:36 -17.30952 123.56130 41048 ft 511 kts 136°
2026-04-25 01:36 -17.36014 123.61386 41047 ft 514 kts 136°
2026-04-25 01:37 -17.41091 123.66660 41050 ft 514 kts 136°
2026-04-25 01:37 -17.46162 123.71936 41051 ft 513 kts 136°
2026-04-25 01:38 -17.51221 123.77204 41051 ft 512 kts 136°
2026-04-25 01:38 -17.56282 123.82476 41056 ft 514 kts 136°
2026-04-25 01:39 -17.60902 123.88224 41047 ft 516 kts 127°
2026-04-25 01:39 -17.65071 123.94303 41052 ft 517 kts 126°
2026-04-25 01:40 -17.69198 124.00484 41046 ft 516 kts 125°
2026-04-25 01:40 -17.73311 124.06650 41056 ft 515 kts 125°
2026-04-25 01:41 -17.77434 124.12811 41057 ft 516 kts 126°
2026-04-25 01:41 -17.81572 124.18985 41058 ft 517 kts 126°
2026-04-25 01:42 -17.85711 124.25169 41061 ft 517 kts 126°
2026-04-25 01:42 -17.89842 124.31348 41063 ft 517 kts 126°
2026-04-25 01:43 -17.93975 124.37536 41066 ft 517 kts 126°
2026-04-25 01:43 -17.98073 124.43675 41066 ft 517 kts 126°
2026-04-25 01:44 -18.02208 124.49875 41070 ft 517 kts 126°
2026-04-25 01:44 -18.06327 124.56061 41065 ft 516 kts 126°
2026-04-25 01:45 -18.10442 124.62245 41062 ft 516 kts 126°
2026-04-25 01:45 -18.14550 124.68422 41064 ft 516 kts 126°
2026-04-25 01:46 -18.18627 124.74561 41067 ft 516 kts 126°
2026-04-25 01:46 -18.22067 124.79745 41069 ft 516 kts 126°
2026-04-25 01:47 -18.26867 124.86983 41069 ft 517 kts 126°
2026-04-25 01:47 -18.30295 124.92158 41068 ft 517 kts 126°
2026-04-25 01:48 -18.35072 124.99377 41072 ft 517 kts 126°
2026-04-25 01:48 -18.38513 125.04583 41074 ft 516 kts 126°
2026-04-25 01:49 -18.42589 125.10752 41076 ft 517 kts 126°
2026-04-25 01:49 -18.46707 125.16993 41077 ft 519 kts 126°
2026-04-25 01:50 -18.50826 125.23241 41065 ft 519 kts 126°
2026-04-25 01:50 -18.54940 125.29488 41082 ft 518 kts 126°
2026-04-25 01:51 -18.59044 125.35727 41081 ft 517 kts 126°
2026-04-25 01:51 -18.63141 125.41960 41083 ft 518 kts 126°
2026-04-25 01:52 -18.67255 125.48224 41080 ft 521 kts 126°
2026-04-25 01:52 -18.71380 125.54512 41084 ft 521 kts 126°
2026-04-25 01:53 -18.75494 125.60789 41087 ft 520 kts 126°
2026-04-25 01:53 -18.79606 125.67073 41078 ft 520 kts 126°
2026-04-25 01:54 -18.83716 125.73361 41081 ft 520 kts 126°
2026-04-25 01:54 -18.87809 125.79622 41097 ft 522 kts 126°
2026-04-25 01:55 -18.91930 125.85934 41083 ft 522 kts 125°
2026-04-25 01:55 -18.96052 125.92255 41090 ft 522 kts 126°
2026-04-25 01:56 -19.00178 125.98587 41090 ft 522 kts 125°
2026-04-25 01:56 -19.04293 126.04910 41107 ft 523 kts 125°
2026-04-25 01:57 -19.10474 126.14421 41094 ft 523 kts 125°
2026-04-25 01:58 -19.14564 126.20719 41098 ft 523 kts 125°
2026-04-25 01:58 -19.18679 126.27066 41096 ft 523 kts 125°
2026-04-25 01:59 -19.22788 126.33411 41100 ft 522 kts 125°
2026-04-25 01:59 -19.26889 126.39749 41096 ft 521 kts 125°
2026-04-25 02:00 -19.30969 126.46061 41102 ft 520 kts 125°
2026-04-25 02:00 -19.35050 126.52383 41103 ft 520 kts 126°
2026-04-25 02:01 -19.39146 126.58731 41113 ft 522 kts 126°
2026-04-25 02:01 -19.43245 126.65092 41111 ft 522 kts 126°
2026-04-25 02:02 -19.47334 126.71452 41111 ft 523 kts 126°
2026-04-25 02:02 -19.51425 126.77826 41110 ft 523 kts 126°
2026-04-25 02:03 -19.55520 126.84215 41119 ft 524 kts 126°
2026-04-25 02:03 -19.59617 126.90615 41119 ft 524 kts 126°
2026-04-25 02:04 -19.63688 126.96979 41122 ft 524 kts 126°
2026-04-25 02:04 -19.67784 127.03389 41121 ft 525 kts 126°
2026-04-25 02:05 -19.71878 127.09802 41122 ft 525 kts 126°
2026-04-25 02:05 -19.75967 127.16215 41124 ft 524 kts 126°
2026-04-25 02:06 -19.80056 127.22634 41124 ft 525 kts 126°
2026-04-25 02:06 -19.84142 127.29054 41129 ft 525 kts 126°
2026-04-25 02:07 -19.88228 127.35482 41125 ft 524 kts 126°
2026-04-25 02:07 -19.92305 127.41904 41127 ft 524 kts 126°
2026-04-25 02:08 -19.96385 127.48336 41118 ft 524 kts 126°
2026-04-25 02:08 -20.00431 127.54721 41124 ft 524 kts 126°
2026-04-25 02:09 -20.04501 127.61152 41124 ft 524 kts 126°
2026-04-25 02:09 -20.08569 127.67587 41124 ft 524 kts 126°
2026-04-25 02:10 -20.12634 127.74022 41126 ft 524 kts 126°
2026-04-25 02:10 -20.16699 127.80466 41128 ft 524 kts 126°
2026-04-25 02:11 -20.20760 127.86912 41128 ft 524 kts 126°
2026-04-25 02:11 -20.24816 127.93358 41128 ft 524 kts 126°
2026-04-25 02:12 -20.28868 127.99802 41130 ft 524 kts 126°
2026-04-25 02:12 -20.32921 128.06256 41132 ft 523 kts 126°
2026-04-25 02:13 -20.36969 128.12706 41130 ft 523 kts 126°
2026-04-25 02:13 -20.40987 128.19118 41139 ft 523 kts 126°
2026-04-25 02:14 -20.45027 128.25573 41134 ft 523 kts 126°
2026-04-25 02:14 -20.49066 128.32032 41136 ft 523 kts 126°
2026-04-25 02:15 -20.53101 128.38494 41137 ft 523 kts 126°
2026-04-25 02:15 -20.57141 128.44970 41138 ft 524 kts 126°
2026-04-25 02:16 -20.61177 128.51447 41140 ft 524 kts 126°
2026-04-25 02:16 -20.65216 128.57934 41136 ft 525 kts 126°
2026-04-25 02:17 -20.69253 128.64426 41142 ft 525 kts 126°
2026-04-25 02:17 -20.73287 128.70922 41142 ft 525 kts 126°
2026-04-25 02:18 -20.77319 128.77423 41144 ft 524 kts 127°
2026-04-25 02:18 -20.81351 128.83930 41147 ft 525 kts 126°
2026-04-25 02:19 -20.85362 128.90409 41147 ft 526 kts 127°
2026-04-25 02:19 -20.89393 128.96930 41146 ft 525 kts 127°
2026-04-25 02:20 -20.93422 129.03448 41142 ft 525 kts 127°
2026-04-25 02:20 -20.97443 129.09973 41146 ft 526 kts 127°
2026-04-25 02:21 -21.01473 129.16517 41144 ft 526 kts 127°
2026-04-25 02:21 -21.05496 129.23058 41146 ft 526 kts 127°
2026-04-25 02:22 -21.09519 129.29600 41144 ft 526 kts 127°
2026-04-25 02:22 -21.13540 129.36144 41149 ft 526 kts 127°
2026-04-25 02:23 -21.17560 129.42697 41145 ft 526 kts 127°
2026-04-25 02:23 -21.21582 129.49265 41148 ft 527 kts 127°
2026-04-25 02:24 -21.25601 129.55833 41149 ft 527 kts 127°
2026-04-25 02:24 -21.29589 129.62364 41148 ft 527 kts 127°
2026-04-25 02:25 -21.33602 129.68944 41149 ft 527 kts 127°
2026-04-25 02:25 -21.37627 129.75541 41149 ft 528 kts 127°
2026-04-25 02:26 -21.41646 129.82141 41149 ft 528 kts 127°
2026-04-25 02:26 -21.45664 129.88749 41154 ft 527 kts 127°
2026-04-25 02:27 -21.49653 129.95312 41155 ft 528 kts 127°
2026-04-25 02:27 -21.53667 130.01927 41154 ft 529 kts 127°
2026-04-25 02:28 -21.57690 130.08569 41154 ft 529 kts 127°
2026-04-25 02:28 -21.61701 130.15198 41157 ft 529 kts 127°
2026-04-25 02:29 -21.65713 130.21836 41171 ft 529 kts 127°
2026-04-25 02:29 -21.69727 130.28477 41159 ft 530 kts 127°
2026-04-25 02:30 -21.73710 130.35078 41163 ft 529 kts 127°
2026-04-25 02:30 -21.77710 130.41725 41164 ft 529 kts 127°
2026-04-25 02:31 -21.81712 130.48371 41166 ft 529 kts 127°
2026-04-25 02:31 -21.85705 130.55023 41164 ft 529 kts 127°
2026-04-25 02:32 -21.89698 130.61674 41164 ft 528 kts 127°
2026-04-25 02:32 -21.93685 130.68333 41162 ft 528 kts 127°
2026-04-25 02:33 -21.97664 130.74983 41164 ft 528 kts 127°
2026-04-25 02:33 -22.01647 130.81641 41170 ft 529 kts 127°
2026-04-25 02:34 -22.05639 130.88327 41167 ft 530 kts 127°
2026-04-25 02:34 -22.09620 130.95004 41170 ft 530 kts 127°
2026-04-25 02:35 -22.12931 131.00566 41178 ft 529 kts 127°
2026-04-25 02:35 -22.17554 131.08338 41178 ft 530 kts 127°
2026-04-25 02:36 -22.21533 131.15035 41176 ft 530 kts 127°
2026-04-25 02:36 -22.24842 131.20613 41175 ft 530 kts 127°
2026-04-25 02:37 -22.28815 131.27316 41180 ft 530 kts 127°
2026-04-25 02:37 -22.32788 131.34028 41191 ft 530 kts 127°
2026-04-25 02:38 -22.36760 131.40747 41181 ft 530 kts 127°
2026-04-25 02:38 -22.40725 131.47463 41187 ft 530 kts 127°
2026-04-25 02:39 -22.44689 131.54185 41186 ft 530 kts 127°
2026-04-25 02:39 -22.48650 131.60911 41194 ft 530 kts 127°
2026-04-25 02:40 -22.52607 131.67640 41191 ft 530 kts 127°
2026-04-25 02:40 -22.56569 131.74384 41190 ft 531 kts 127°
2026-04-25 02:41 -22.60524 131.81125 41191 ft 530 kts 127°
2026-04-25 02:41 -22.64450 131.87827 41186 ft 530 kts 127°
2026-04-25 02:42 -22.68397 131.94572 41205 ft 531 kts 127°
2026-04-25 02:42 -22.72345 132.01327 41204 ft 530 kts 127°
2026-04-25 02:43 -22.76295 132.08093 41195 ft 530 kts 127°
2026-04-25 02:43 -22.80233 132.14851 41198 ft 530 kts 127°
2026-04-25 02:44 -22.84175 132.21624 41195 ft 531 kts 127°
2026-04-25 02:44 -22.88111 132.28393 41199 ft 530 kts 127°
2026-04-25 02:45 -22.92044 132.35167 41206 ft 530 kts 127°
2026-04-25 02:45 -22.95940 132.41888 41204 ft 531 kts 127°
2026-04-25 02:46 -22.99873 132.48679 41199 ft 531 kts 127°
2026-04-25 02:46 -23.03800 132.55469 41202 ft 531 kts 127°
2026-04-25 02:47 -23.07720 132.62255 41200 ft 530 kts 127°
2026-04-25 02:47 -23.11640 132.69052 41209 ft 530 kts 127°
2026-04-25 02:48 -23.15556 132.75851 41203 ft 531 kts 127°
2026-04-25 02:48 -23.19472 132.82657 41208 ft 531 kts 127°
2026-04-25 02:49 -23.23361 132.89428 41201 ft 531 kts 127°
2026-04-25 02:49 -23.27269 132.96239 41209 ft 532 kts 127°
2026-04-25 02:50 -23.31195 133.03089 41206 ft 533 kts 127°
2026-04-25 02:50 -23.35114 133.09941 41209 ft 532 kts 127°
2026-04-25 02:51 -23.39019 133.16775 41210 ft 532 kts 127°
2026-04-25 02:51 -23.42927 133.23623 41216 ft 532 kts 127°
2026-04-25 02:52 -23.46826 133.30467 41207 ft 532 kts 127°
2026-04-25 02:52 -23.50724 133.37314 41208 ft 531 kts 127°
2026-04-25 02:53 -23.54617 133.44164 41219 ft 532 kts 127°
2026-04-25 02:53 -23.58508 133.51020 41213 ft 532 kts 127°
2026-04-25 02:54 -23.62377 133.57846 41209 ft 532 kts 127°
2026-04-25 02:54 -23.66267 133.64718 41219 ft 532 kts 127°
2026-04-25 02:55 -23.70150 133.71585 41232 ft 532 kts 127°
2026-04-25 02:55 -23.74037 133.78472 41229 ft 533 kts 127°
2026-04-25 02:56 -23.77922 133.85362 41239 ft 533 kts 127°
2026-04-25 02:56 -23.82311 133.91770 41239 ft 525 kts 135°
2026-04-25 02:57 -23.86950 133.97924 41242 ft 525 kts 136°
2026-04-25 02:57 -23.91633 134.04049 41207 ft 525 kts 136°
2026-04-25 02:58 -23.96306 134.10179 41208 ft 525 kts 136°
2026-04-25 02:58 -24.00944 134.16288 41203 ft 525 kts 136°
2026-04-25 02:59 -24.05609 134.22446 41204 ft 526 kts 136°
2026-04-25 02:59 -24.10276 134.28618 41202 ft 526 kts 136°
2026-04-25 03:00 -24.14934 134.34787 41212 ft 526 kts 136°
2026-04-25 03:00 -24.19595 134.40966 41206 ft 526 kts 136°
2026-04-25 03:01 -24.24252 134.47147 41201 ft 526 kts 136°
2026-04-25 03:01 -24.28910 134.53336 41199 ft 526 kts 136°
2026-04-25 03:02 -24.33560 134.59520 41192 ft 526 kts 136°
2026-04-25 03:02 -24.38212 134.65719 41195 ft 526 kts 136°
2026-04-25 03:03 -24.42856 134.71915 41195 ft 525 kts 136°
2026-04-25 03:03 -24.47499 134.78114 41204 ft 526 kts 137°
2026-04-25 03:04 -24.52149 134.84331 41196 ft 527 kts 137°
2026-04-25 03:04 -24.56765 134.90513 41197 ft 527 kts 136°
2026-04-25 03:05 -24.63737 134.99863 41197 ft 528 kts 137°
2026-04-25 03:05 -24.68391 135.06115 41200 ft 527 kts 137°
2026-04-25 03:06 -24.73033 135.12360 41201 ft 527 kts 137°
2026-04-25 03:06 -24.77674 135.18609 41200 ft 527 kts 137°
2026-04-25 03:07 -24.82312 135.24864 41200 ft 527 kts 137°
2026-04-25 03:07 -24.86952 135.31131 41200 ft 527 kts 137°
2026-04-25 03:08 -24.91588 135.37401 41200 ft 527 kts 137°
2026-04-25 03:08 -24.96218 135.43669 41219 ft 527 kts 137°
2026-04-25 03:09 -25.00845 135.49941 41203 ft 528 kts 137°
2026-04-25 03:09 -25.05449 135.56193 41205 ft 528 kts 137°
2026-04-25 03:10 -25.10077 135.62485 41202 ft 528 kts 137°
2026-04-25 03:10 -25.14701 135.68773 41202 ft 527 kts 137°
2026-04-25 03:11 -25.19324 135.75069 41203 ft 527 kts 137°
2026-04-25 03:11 -25.23935 135.81370 41207 ft 527 kts 137°
2026-04-25 03:12 -25.28546 135.87676 41206 ft 527 kts 137°
2026-04-25 03:12 -25.33152 135.93977 41205 ft 527 kts 137°
2026-04-25 03:13 -25.37759 136.00288 41208 ft 527 kts 137°
2026-04-25 03:13 -25.42362 136.06603 41206 ft 527 kts 137°
2026-04-25 03:14 -25.46933 136.12882 41202 ft 528 kts 137°
2026-04-25 03:14 -25.51533 136.19212 41208 ft 528 kts 137°
2026-04-25 03:15 -25.56135 136.25553 41206 ft 527 kts 137°
2026-04-25 03:15 -25.60729 136.31890 41205 ft 527 kts 137°
2026-04-25 03:16 -25.65316 136.38228 41200 ft 527 kts 137°
2026-04-25 03:16 -25.69906 136.44576 41202 ft 527 kts 137°
2026-04-25 03:17 -25.74493 136.50930 41215 ft 528 kts 137°
2026-04-25 03:17 -25.79081 136.57295 41201 ft 528 kts 137°
2026-04-25 03:18 -25.83633 136.63619 41206 ft 527 kts 137°
2026-04-25 03:18 -25.88210 136.69985 41218 ft 527 kts 137°
2026-04-25 03:19 -25.92788 136.76363 41206 ft 528 kts 137°
2026-04-25 03:19 -25.97365 136.82750 41209 ft 528 kts 137°
2026-04-25 03:20 -26.01934 136.89137 41208 ft 527 kts 137°
2026-04-25 03:20 -26.06498 136.95520 41207 ft 527 kts 137°
2026-04-25 03:21 -26.11066 137.01920 41211 ft 527 kts 137°
2026-04-25 03:21 -26.15625 137.08322 41210 ft 527 kts 137°
2026-04-25 03:22 -26.20180 137.14719 41210 ft 527 kts 137°
2026-04-25 03:22 -26.24736 137.21125 41211 ft 527 kts 137°
2026-04-25 03:23 -26.29285 137.27533 41212 ft 527 kts 137°
2026-04-25 03:23 -26.33062 137.32869 41214 ft 527 kts 137°
2026-04-25 03:24 -26.37611 137.39295 41225 ft 528 kts 137°
2026-04-25 03:24 -26.42159 137.45730 41215 ft 528 kts 137°
2026-04-25 03:25 -26.46701 137.52163 41214 ft 528 kts 137°
2026-04-25 03:25 -26.51244 137.58614 41221 ft 528 kts 137°
2026-04-25 03:26 -26.55778 137.65056 41223 ft 527 kts 137°
2026-04-25 03:26 -26.60284 137.71468 41223 ft 527 kts 137°
2026-04-25 03:27 -26.64839 137.77959 41211 ft 527 kts 137°
2026-04-25 03:27 -26.69360 137.84409 41218 ft 527 kts 137°
2026-04-25 03:28 -26.73875 137.90858 41237 ft 527 kts 137°
2026-04-25 03:28 -26.78357 137.97276 41220 ft 527 kts 137°
2026-04-25 03:29 -26.82866 138.03736 41237 ft 526 kts 137°
2026-04-25 03:29 -26.87360 138.10188 41223 ft 525 kts 137°
2026-04-25 03:30 -26.91854 138.16647 41225 ft 525 kts 137°
2026-04-25 03:30 -26.96335 138.23107 41232 ft 525 kts 137°
2026-04-25 03:31 -27.00816 138.29565 41225 ft 524 kts 137°
2026-04-25 03:31 -27.05290 138.36020 41227 ft 524 kts 137°
2026-04-25 03:32 -27.09760 138.42482 41224 ft 524 kts 137°
2026-04-25 03:32 -27.14227 138.48955 41224 ft 523 kts 137°
2026-04-25 03:33 -27.18677 138.55407 41222 ft 522 kts 137°
2026-04-25 03:33 -27.23096 138.61824 41224 ft 522 kts 137°
2026-04-25 03:34 -27.27566 138.68323 41228 ft 522 kts 137°
2026-04-25 03:34 -27.31977 138.74748 41225 ft 522 kts 137°
2026-04-25 03:35 -27.36415 138.81222 41226 ft 522 kts 137°
2026-04-25 03:35 -27.40848 138.87701 41240 ft 522 kts 137°
2026-04-25 03:36 -27.45282 138.94188 41227 ft 522 kts 137°
2026-04-25 03:36 -27.49709 139.00672 41228 ft 522 kts 137°
2026-04-25 03:37 -27.54102 139.07121 41231 ft 522 kts 137°
2026-04-25 03:37 -27.58515 139.13608 41235 ft 521 kts 137°
2026-04-25 03:38 -27.62930 139.20106 41233 ft 521 kts 137°
2026-04-25 03:38 -27.67338 139.26603 41231 ft 522 kts 137°
2026-04-25 03:39 -27.71744 139.33106 41235 ft 522 kts 137°
2026-04-25 03:39 -27.76149 139.39619 41233 ft 522 kts 137°
2026-04-25 03:40 -27.80556 139.46142 41237 ft 522 kts 136°
2026-04-25 03:40 -27.84960 139.52673 41242 ft 523 kts 136°
2026-04-25 03:41 -27.89356 139.59207 41230 ft 521 kts 136°
2026-04-25 03:41 -27.93716 139.65693 41239 ft 521 kts 136°
2026-04-25 03:42 -27.98098 139.72218 41234 ft 521 kts 136°
2026-04-25 03:42 -28.02472 139.78744 41237 ft 520 kts 136°
2026-04-25 03:43 -28.06832 139.85259 41241 ft 519 kts 136°
2026-04-25 03:43 -28.11189 139.91779 41242 ft 519 kts 136°
2026-04-25 03:44 -28.15539 139.98297 41256 ft 519 kts 136°
2026-04-25 03:44 -28.19879 140.04813 41243 ft 517 kts 136°
2026-04-25 03:45 -28.24203 140.11314 41260 ft 517 kts 136°
2026-04-25 03:45 -28.28528 140.17823 41243 ft 517 kts 136°
2026-04-25 03:46 -28.32845 140.24331 41251 ft 515 kts 136°
2026-04-25 03:46 -28.37155 140.30844 41244 ft 515 kts 136°
2026-04-25 03:47 -28.41429 140.37308 41244 ft 515 kts 136°
2026-04-25 03:47 -28.45724 140.43812 41258 ft 514 kts 136°
2026-04-25 03:48 -28.50002 140.50304 41243 ft 512 kts 135°
2026-04-25 03:48 -28.54272 140.56792 41245 ft 512 kts 135°
2026-04-25 03:49 -28.58535 140.63278 41249 ft 512 kts 136°
2026-04-25 03:49 -28.62792 140.69765 41252 ft 510 kts 135°
2026-04-25 03:50 -28.67033 140.76242 41250 ft 510 kts 135°
2026-04-25 03:50 -28.71268 140.82715 41253 ft 510 kts 135°
2026-04-25 03:51 -28.75507 140.89204 41256 ft 511 kts 135°
2026-04-25 03:51 -28.79755 140.95711 41252 ft 512 kts 135°
2026-04-25 03:52 -28.84005 141.02232 41250 ft 512 kts 135°
2026-04-25 03:52 -28.88252 141.08763 41253 ft 512 kts 135°
2026-04-25 03:53 -28.92463 141.15254 41257 ft 512 kts 135°
2026-04-25 03:53 -28.96690 141.21785 41253 ft 511 kts 135°
2026-04-25 03:54 -29.00913 141.28319 41257 ft 511 kts 135°
2026-04-25 03:54 -29.05143 141.34857 41270 ft 511 kts 135°
2026-04-25 03:55 -29.09354 141.41391 41263 ft 509 kts 135°
2026-04-25 03:55 -29.13554 141.47917 41262 ft 509 kts 135°
2026-04-25 03:56 -29.17744 141.54435 41266 ft 509 kts 135°
2026-04-25 03:56 -29.21936 141.60963 41269 ft 509 kts 135°
2026-04-25 03:57 -29.26134 141.67510 41268 ft 509 kts 135°
2026-04-25 03:57 -29.30296 141.74012 41270 ft 509 kts 135°
2026-04-25 03:58 -29.34508 141.80610 41268 ft 509 kts 135°
2026-04-25 03:58 -29.38656 141.87112 41269 ft 508 kts 135°
2026-04-25 03:59 -29.42824 141.93655 41274 ft 507 kts 135°
2026-04-25 03:59 -29.46983 142.00196 41272 ft 507 kts 135°
2026-04-25 04:00 -29.51142 142.06743 41283 ft 507 kts 135°
2026-04-25 04:00 -29.55276 142.13268 41279 ft 504 kts 135°
2026-04-25 04:01 -29.59392 142.19772 41276 ft 503 kts 135°
2026-04-25 04:01 -29.63510 142.26287 41276 ft 503 kts 135°
2026-04-25 04:02 -29.67623 142.32804 41274 ft 503 kts 135°
2026-04-25 04:02 -29.71705 142.39284 41274 ft 503 kts 135°
2026-04-25 04:03 -29.75806 142.45804 41277 ft 503 kts 135°
2026-04-25 04:03 -29.79928 142.52369 41280 ft 503 kts 135°
2026-04-25 04:04 -29.84000 142.58862 41276 ft 504 kts 135°
2026-04-25 04:04 -29.88105 142.65421 41275 ft 504 kts 135°
2026-04-25 04:05 -29.92259 142.71916 41275 ft 501 kts 137°
2026-04-25 04:05 -29.96667 142.78105 41293 ft 499 kts 139°
2026-04-25 04:06 -30.01118 142.84260 41274 ft 500 kts 139°
2026-04-25 04:06 -30.05542 142.90482 41273 ft 501 kts 138°
2026-04-25 04:07 -30.09932 142.96731 41274 ft 501 kts 138°
2026-04-25 04:07 -30.14316 143.02996 41281 ft 501 kts 137°
2026-04-25 04:08 -30.18686 143.09253 41280 ft 499 kts 137°
2026-04-25 04:08 -30.23047 143.15496 41280 ft 499 kts 137°
2026-04-25 04:09 -30.26668 143.20687 41281 ft 499 kts 137°
2026-04-25 04:09 -30.31759 143.27997 41287 ft 498 kts 137°
2026-04-25 04:10 -30.36093 143.34236 41283 ft 496 kts 137°
2026-04-25 04:10 -30.40388 143.40422 41284 ft 496 kts 137°
2026-04-25 04:11 -30.46864 143.49767 41282 ft 496 kts 137°
2026-04-25 04:12 -30.50475 143.54990 41283 ft 495 kts 136°
2026-04-25 04:12 -30.54753 143.61186 41288 ft 495 kts 136°
2026-04-25 04:13 -30.59054 143.67425 41286 ft 495 kts 136°
2026-04-25 04:13 -30.63362 143.73683 41281 ft 495 kts 136°
2026-04-25 04:14 -30.67660 143.79937 41282 ft 495 kts 135°
2026-04-25 04:14 -30.71953 143.86195 41275 ft 495 kts 135°
2026-04-25 04:15 -30.76241 143.92457 41279 ft 495 kts 135°
2026-04-25 04:15 -30.80503 143.98688 41289 ft 495 kts 135°
2026-04-25 04:16 -30.84783 144.04956 41287 ft 495 kts 135°
2026-04-25 04:16 -30.89067 144.11239 41288 ft 495 kts 135°
2026-04-25 04:17 -30.93345 144.17524 41279 ft 495 kts 135°
2026-04-25 04:17 -30.97621 144.23816 41278 ft 495 kts 135°
2026-04-25 04:18 -31.01883 144.30100 41282 ft 493 kts 134°
2026-04-25 04:18 -31.06131 144.36372 41284 ft 492 kts 134°
2026-04-25 04:19 -31.10378 144.42653 41284 ft 492 kts 134°
2026-04-25 04:19 -31.14615 144.48928 41292 ft 492 kts 134°
2026-04-25 04:20 -31.18848 144.55207 41290 ft 491 kts 134°
2026-04-25 04:20 -31.23071 144.61481 41290 ft 491 kts 134°
2026-04-25 04:21 -31.27258 144.67712 41292 ft 491 kts 134°
2026-04-25 04:21 -31.31469 144.73989 41293 ft 491 kts 134°
2026-04-25 04:22 -31.35685 144.80284 41292 ft 490 kts 134°
2026-04-25 04:22 -31.39884 144.86564 41295 ft 490 kts 134°
2026-04-25 04:23 -31.44082 144.92851 41297 ft 490 kts 133°
2026-04-25 04:23 -31.48280 144.99150 41295 ft 490 kts 133°
2026-04-25 04:24 -31.52474 145.05452 41296 ft 490 kts 133°
2026-04-25 04:24 -31.56635 145.11716 41295 ft 490 kts 133°
2026-04-25 04:25 -31.60819 145.18025 41298 ft 490 kts 133°
2026-04-25 04:25 -31.64999 145.24337 41299 ft 490 kts 133°
2026-04-25 04:26 -31.69171 145.30647 41298 ft 489 kts 133°
2026-04-25 04:26 -31.73334 145.36956 41298 ft 488 kts 133°
2026-04-25 04:27 -31.77500 145.43279 41300 ft 488 kts 133°
2026-04-25 04:27 -31.81656 145.49597 41301 ft 488 kts 133°
2026-04-25 04:28 -31.85805 145.55913 41304 ft 488 kts 132°
2026-04-25 04:28 -31.89942 145.62226 41299 ft 487 kts 132°
2026-04-25 04:29 -31.94045 145.68494 41300 ft 486 kts 132°
2026-04-25 04:29 -31.98175 145.74815 41301 ft 487 kts 132°
2026-04-25 04:30 -32.02302 145.81139 41304 ft 486 kts 132°
2026-04-25 04:30 -32.06418 145.87459 41303 ft 486 kts 132°
2026-04-25 04:31 -32.10529 145.93782 41305 ft 486 kts 132°
2026-04-25 04:31 -32.14637 146.00110 41306 ft 486 kts 132°
2026-04-25 04:32 -32.18745 146.06448 41314 ft 485 kts 131°
2026-04-25 04:32 -32.22838 146.12776 41306 ft 485 kts 131°
2026-04-25 04:33 -32.26924 146.19102 41306 ft 484 kts 131°
2026-04-25 04:33 -32.31010 146.25438 41306 ft 484 kts 131°
2026-04-25 04:34 -32.35098 146.31787 41322 ft 485 kts 131°
2026-04-25 04:34 -32.39155 146.38100 41311 ft 485 kts 131°
2026-04-25 04:35 -32.43230 146.44451 41311 ft 485 kts 131°
2026-04-25 04:35 -32.47306 146.50816 41315 ft 485 kts 131°
2026-04-25 04:36 -32.51380 146.57187 41311 ft 485 kts 131°
2026-04-25 04:36 -32.55453 146.63568 41312 ft 485 kts 131°
2026-04-25 04:37 -32.59520 146.69949 41315 ft 485 kts 131°
2026-04-25 04:37 -32.63591 146.76348 41312 ft 485 kts 131°
2026-04-25 04:38 -32.67622 146.82696 41312 ft 485 kts 131°
2026-04-25 04:38 -32.71678 146.89093 41317 ft 484 kts 130°
2026-04-25 04:39 -32.75725 146.95487 41312 ft 484 kts 131°
2026-04-25 04:39 -32.79342 147.01213 41313 ft 484 kts 130°
2026-04-25 04:40 -32.83384 147.07619 41311 ft 484 kts 130°
2026-04-25 04:40 -32.87427 147.14038 41316 ft 484 kts 130°
2026-04-25 04:41 -32.91456 147.20446 41314 ft 483 kts 130°
2026-04-25 04:41 -32.95488 147.26870 41314 ft 483 kts 130°
2026-04-25 04:42 -32.99510 147.33290 41313 ft 484 kts 130°
2026-04-25 04:42 -33.03500 147.39668 41320 ft 483 kts 130°
2026-04-25 04:43 -33.07517 147.46101 41316 ft 483 kts 130°
2026-04-25 04:43 -33.11525 147.52532 41313 ft 483 kts 130°
2026-04-25 04:44 -33.15532 147.58972 41320 ft 483 kts 130°
2026-04-25 04:44 -33.19533 147.65414 41332 ft 483 kts 130°
2026-04-25 04:45 -33.23530 147.71859 41313 ft 482 kts 130°
2026-04-25 04:45 -33.27518 147.78303 41313 ft 482 kts 130°
2026-04-25 04:46 -33.31504 147.84754 41320 ft 482 kts 130°
2026-04-25 04:46 -33.35493 147.91203 41321 ft 482 kts 131°
2026-04-25 04:47 -33.39853 147.97181 41320 ft 479 kts 135°
2026-04-25 04:47 -33.44358 148.03053 41324 ft 478 kts 136°
2026-04-25 04:48 -33.48878 148.08899 41323 ft 478 kts 136°
2026-04-25 04:48 -33.53393 148.14753 41322 ft 478 kts 136°
2026-04-25 04:49 -33.57901 148.20621 41329 ft 479 kts 136°
2026-04-25 04:49 -33.62406 148.26498 41323 ft 478 kts 136°
2026-04-25 04:50 -33.66871 148.32335 41323 ft 478 kts 136°
2026-04-25 04:50 -33.71361 148.38213 41328 ft 478 kts 135°
2026-04-25 04:51 -33.75849 148.44098 41329 ft 478 kts 135°
2026-04-25 04:51 -33.80334 148.49988 41334 ft 477 kts 135°
2026-04-25 04:52 -33.84809 148.55875 41326 ft 476 kts 135°
2026-04-25 04:52 -33.89276 148.61762 41337 ft 476 kts 135°
2026-04-25 04:53 -33.93743 148.67659 41332 ft 477 kts 135°
2026-04-25 04:53 -33.98215 148.73571 41335 ft 477 kts 135°
2026-04-25 04:54 -34.02681 148.79486 41335 ft 476 kts 135°
2026-04-25 04:54 -34.07129 148.85388 41339 ft 475 kts 135°
2026-04-25 04:55 -34.11575 148.91299 41339 ft 475 kts 135°
2026-04-25 04:55 -34.16015 148.97208 41057 ft 475 kts 135°
2026-04-25 04:55 -34.18235 149.00166 40812 ft 475 kts 135°
2026-04-25 04:56 -34.20452 149.03124 40566 ft 475 kts 135°
2026-04-25 04:56 -34.22670 149.06085 40329 ft 475 kts 135°
2026-04-25 04:56 -34.24131 149.08037 40174 ft 474 kts 135°
2026-04-25 04:56 -34.27063 149.11958 39867 ft 473 kts 135°
2026-04-25 04:57 -34.29274 149.14918 39625 ft 473 kts 135°
2026-04-25 04:57 -34.31480 149.17872 39386 ft 473 kts 135°
2026-04-25 04:57 -34.33683 149.20826 39161 ft 473 kts 134°
2026-04-25 04:57 -34.35887 149.23784 38913 ft 473 kts 134°
2026-04-25 04:58 -34.38091 149.26743 38634 ft 473 kts 134°
2026-04-25 04:58 -34.39535 149.28709 38296 ft 471 kts 133°
2026-04-25 04:58 -34.42005 149.33081 37445 ft 472 kts 120°
2026-04-25 04:58 -34.42904 149.35490 36993 ft 475 kts 112°
2026-04-25 04:59 -34.43786 149.39358 36290 ft 477 kts 103°
2026-04-25 04:59 -34.44387 149.43313 35565 ft 479 kts 101°
2026-04-25 04:59 -34.44890 149.47314 34764 ft 482 kts 100°
2026-04-25 04:59 -34.45349 149.51351 33865 ft 485 kts 99°
2026-04-25 05:00 -34.45797 149.55411 32957 ft 487 kts 99°
2026-04-25 05:00 -34.46405 149.60867 31759 ft 489 kts 99°
2026-04-25 05:00 -34.46713 149.63567 31136 ft 490 kts 99°
2026-04-25 05:00 -34.47186 149.67664 30124 ft 493 kts 99°
2026-04-25 05:01 -34.47668 149.71785 29062 ft 494 kts 99°
2026-04-25 05:01 -34.48150 149.75884 28372 ft 488 kts 99°
2026-04-25 05:01 -34.48625 149.79935 27689 ft 483 kts 99°
2026-04-25 05:01 -34.49090 149.83904 26998 ft 478 kts 99°
2026-04-25 05:02 -34.49544 149.87934 26288 ft 474 kts 97°
2026-04-25 05:02 -34.49563 149.91910 25626 ft 471 kts 85°
2026-04-25 05:02 -34.48867 149.95725 24963 ft 469 kts 71°
2026-04-25 05:02 -34.47530 149.99312 24288 ft 466 kts 64°
2026-04-25 05:03 -34.46026 150.02770 23559 ft 462 kts 63°
2026-04-25 05:03 -34.44513 150.06178 22863 ft 456 kts 63°
2026-04-25 05:03 -34.43016 150.09541 22198 ft 450 kts 63°
2026-04-25 05:03 -34.41553 150.12830 21522 ft 434 kts 63°
2026-04-25 05:04 -34.40129 150.16032 20888 ft 430 kts 63°
2026-04-25 05:04 -34.38713 150.19211 20242 ft 427 kts 63°
2026-04-25 05:04 -34.37306 150.22370 19575 ft 425 kts 63°
2026-04-25 05:04 -34.35907 150.25508 18921 ft 422 kts 62°
2026-04-25 05:05 -34.34517 150.28624 18204 ft 419 kts 62°
2026-04-25 05:05 -34.33138 150.31710 17521 ft 414 kts 63°
2026-04-25 05:05 -34.31779 150.34754 16863 ft 409 kts 62°
2026-04-25 05:05 -34.30430 150.37770 16206 ft 406 kts 62°
2026-04-25 05:06 -34.29093 150.40760 15528 ft 403 kts 62°
2026-04-25 05:06 -34.27765 150.43726 14875 ft 399 kts 62°
2026-04-25 05:06 -34.26452 150.46675 14231 ft 396 kts 62°
2026-04-25 05:06 -34.25144 150.49597 13533 ft 394 kts 62°
2026-04-25 05:07 -34.23847 150.52489 12874 ft 390 kts 62°
2026-04-25 05:07 -34.22563 150.55354 12226 ft 386 kts 62°
2026-04-25 05:07 -34.21290 150.58194 11569 ft 382 kts 62°
2026-04-25 05:07 -34.20032 150.60997 11123 ft 374 kts 62°
2026-04-25 05:08 -34.18822 150.63689 10889 ft 353 kts 63°
2026-04-25 05:08 -34.17696 150.66198 10655 ft 327 kts 63°
2026-04-25 05:08 -34.16650 150.68529 10454 ft 304 kts 62°
2026-04-25 05:08 -34.15685 150.70670 10314 ft 287 kts 63°
2026-04-25 05:09 -34.14747 150.72751 10179 ft 277 kts 62°
2026-04-25 05:09 -34.13841 150.74762 10043 ft 268 kts 62°
2026-04-25 05:09 -34.12951 150.76737 9915 ft 272 kts 62°
2026-04-25 05:09 -34.12022 150.78801 9856 ft 284 kts 62°
2026-04-25 05:10 -34.11082 150.80884 9418 ft 283 kts 62°
2026-04-25 05:10 -34.10140 150.82974 8966 ft 284 kts 62°
2026-04-25 05:10 -34.09198 150.85076 8717 ft 285 kts 62°
2026-04-25 05:10 -34.08253 150.87174 8519 ft 284 kts 62°
2026-04-25 05:11 -34.07311 150.89264 8309 ft 283 kts 62°
2026-04-25 05:11 -34.06370 150.91349 8090 ft 283 kts 61°
2026-04-25 05:11 -34.05432 150.93429 7888 ft 282 kts 62°
2026-04-25 05:12 -34.03562 150.97571 7443 ft 281 kts 62°
2026-04-25 05:12 -34.02630 150.99638 7252 ft 280 kts 61°
2026-04-25 05:12 -34.01662 151.01674 7039 ft 280 kts 55°
2026-04-25 05:12 -34.00234 151.03227 6854 ft 278 kts 28°
2026-04-25 05:13 -33.98398 151.03899 6665 ft 276 kts
2026-04-25 05:13 -33.96488 151.04108 6438 ft 275 kts
2026-04-25 05:13 -33.94582 151.04245 6254 ft 274 kts 359°
2026-04-25 05:13 -33.92681 151.04383 6050 ft 273 kts
2026-04-25 05:14 -33.90791 151.04498 6027 ft 272 kts
2026-04-25 05:14 -33.88904 151.04456 6024 ft 271 kts 355°
2026-04-25 05:14 -33.87034 151.04201 6022 ft 271 kts 352°
2026-04-25 05:15 -33.83304 151.03648 5893 ft 272 kts 353°
2026-04-25 05:15 -33.81424 151.03351 5412 ft 274 kts 353°
2026-04-25 05:15 -33.79518 151.03044 4803 ft 279 kts 353°
2026-04-25 05:15 -33.77586 151.02727 4173 ft 282 kts 353°
2026-04-25 05:16 -33.75629 151.02402 3550 ft 285 kts 353°
2026-04-25 05:16 -33.73670 151.02070 3121 ft 281 kts 353°
2026-04-25 05:16 -33.71787 151.01748 2987 ft 265 kts 353°
2026-04-25 05:16 -33.69993 151.01509 2972 ft 257 kts
2026-04-25 05:17 -33.68279 151.02050 2984 ft 256 kts 30°
2026-04-25 05:17 -33.67002 151.03507 2982 ft 256 kts 58°
2026-04-25 05:17 -33.66412 151.05518 2991 ft 259 kts 79°
2026-04-25 05:17 -33.66380 151.07649 2978 ft 263 kts 101°
2026-04-25 05:18 -33.67277 151.09550 2989 ft 265 kts 134°
2026-04-25 05:18 -33.68791 151.10810 2999 ft 267 kts 155°
2026-04-25 05:18 -33.70577 151.11465 2998 ft 269 kts 169°
2026-04-25 05:18 -33.72413 151.11858 2991 ft 268 kts 169°
2026-04-25 05:19 -33.74243 151.12284 2996 ft 269 kts 168°
2026-04-25 05:19 -33.76075 151.12758 2995 ft 269 kts 167°
2026-04-25 05:19 -33.77900 151.13238 2987 ft 268 kts 168°
2026-04-25 05:19 -33.79730 151.13725 2745 ft 268 kts 167°
2026-04-25 05:20 -33.81535 151.14200 2345 ft 260 kts 167°
2026-04-25 05:20 -33.83206 151.14627 1996 ft 231 kts 167°
2026-04-25 05:20 -33.84689 151.15013 1708 ft 207 kts 166°
2026-04-25 05:20 -33.86024 151.15358 1450 ft 186 kts 165°
2026-04-25 05:21 -33.87224 151.15670 1237 ft 169 kts 164°
2026-04-25 05:21 -33.88322 151.15957 1002 ft 154 kts 165°
2026-04-25 05:21 -33.89332 151.16218 795 ft 144 kts 163°
2026-04-25 05:21 -33.90293 151.16465 630 ft 139 kts 165°
2026-04-25 05:22 -33.91242 151.16713 463 ft 139 kts 164°
2026-04-25 05:22 -33.92197 151.16962 248 ft 142 kts 162°
2026-04-25 05:22 -33.93150 151.17218 86 ft 141 kts 163°
2026-04-25 05:22 -33.94074 151.17473 32 ft 121 kts 167°
2026-04-25 05:23 -33.94634 151.17603 36 ft 43 kts 169°
2026-04-25 05:23 -33.94892 151.17645 35 ft 37 kts 175°
2026-04-25 05:23 -33.95087 151.17625 34 ft 12 kts 201°
2026-04-25 05:23 -33.95128 151.17582 35 ft 6 kts 260°
2026-04-25 05:24 -33.95111 151.17541 36 ft 7 kts 310°
2026-04-25 05:24 -33.95058 151.17506 36 ft 10 kts 340°
2026-04-25 05:24 -33.94977 151.17486 36 ft 14 kts 348°
2026-04-25 05:24 -33.94874 151.17459 36 ft 16 kts 348°
2026-04-25 05:25 -33.94786 151.17435 36 ft 13 kts 348°
2026-04-25 05:25 -33.94689 151.17411 37 ft 16 kts 348°
2026-04-25 05:25 -33.94573 151.17381 37 ft 18 kts 348°
2026-04-25 05:25 -33.94439 151.17347 37 ft 21 kts 348°
2026-04-25 05:26 -33.94289 151.17308 36 ft 23 kts 348°
2026-04-25 05:26 -33.94121 151.17263 35 ft 25 kts 347°
2026-04-25 05:26 -33.93981 151.17227 35 ft 21 kts 348°
2026-04-25 05:26 -33.93829 151.17188 35 ft 23 kts 347°
2026-04-25 05:27 -33.93681 151.17149 35 ft 19 kts 348°
2026-04-25 05:27 -33.93560 151.17117 35 ft 14 kts 348°
2026-04-25 05:27 -33.93501 151.17048 36 ft 11 kts 272°
2026-04-25 05:27 -33.93515 151.16955 36 ft 12 kts 258°
2026-04-25 05:28 -33.93529 151.16887 36 ft 7 kts 250°
2026-04-25 05:28 -33.93550 151.16846 36 ft 5 kts 240°
2026-04-25 05:28 -33.93558 151.16830 36 ft 2 kts 239°
2026-04-25 05:28 -33.93563 151.16820 36 ft 0 kts 238°